Regional Weather Roundup
Issued by NWS

Home | Current Version | Previous Version | Graphics & Text | Print | Product List | Glossary On
Versions: 1 2 3 4 5 6 7 8 9 10 11 12 13 14 15 16 17 18 19 20 21 22 23 24 25 26 27 28 29 30 31 32 33 34 35 36 37 38 39 40 41 42 43 44 45 46 47 48 49 50
000
ASUS45 KBOU 302107
RWRCO

WEATHER ROUNDUP FOR COLORADO
NATIONAL WEATHER SERVICE DENVER/BOULDER CO
200 PM MST FRI JAN 30 2015

NOTE: "FAIR" INDICATES FEW OR NO CLOUDS BELOW 12000 FEET WITH NO
SIGNIFICANT WEATHER AND/OR OBSTRUCTIONS TO VISIBILITY.

COZ001>005-013-030-031-302200-
...NORTHWEST COLORADO...

CITY           SKY/WX    TMP DP  RH WIND       PRES   REMARKS
CRAIG          CLOUDY    39  32  76 CALM      30.05F
HAYDEN         CLOUDY    37  28  70 CALM      30.04F
MEEKER         CLOUDY    37  32  82 CALM      30.04F
MOUNT WERNER   NOT AVBL
STEAMBOAT SPGS CLOUDY    36  28  74 CALM      30.04F
WALDEN         CLOUDY    36  27  69 N3        30.09F
$$

COZ006>008-011-302200-
...WEST CENTRAL VALLEYS...

CITY           SKY/WX    TMP DP  RH WIND       PRES   REMARKS
GRAND JUNCTION CLOUDY    46  35  65 S8        30.03F
MONTROSE       CLOUDY    42  35  76 NW9       30.05F
EAGLE          CLOUDY    39  28  65 W3        30.09F
RIFLE          CLOUDY    44  30  57 CALM      30.03F
DELTA          RAIN      45  38  77 SW6       30.05F
NUCLA          DRIZZLE   37  36  93 CALM      30.08F
$$

COZ017>023-064>068-302200-
...SOUTHWEST COLORADO...

CITY           SKY/WX    TMP DP  RH WIND       PRES   REMARKS
DURANGO        SNOW      32  31  96 NE10      30.10F VSB 1/2 WCI  24
CORTEZ         LGT RAIN  39  34  82 N5        30.06F
PAGOSA SPRINGS SNOW      34  34 100 CALM      30.13F VSB 1/2
TELLURIDE      CLOUDY    38  29  72 SE8       30.06F
WOLF CREEK PAS SNOW      23  23 100 SW13G18   30.18F VSB 1/4 WCI  11
$$

COZ009-010-012-014-032>034-037-058>063-302200-
...CENTRAL COLORADO...

CITY           SKY/WX    TMP DP  RH WIND       PRES   REMARKS
ASPEN          CLOUDY    37  25  61 CALM      30.05F
BUENA VISTA    LGT SNOW  32  30  92 CALM      30.13F
COPPER MTN     LGT SNOW  30  23  74 S8        30.15F WCI  23
BERTHOUD PASS  CLOUDY    19  12  73 E26       30.17F WCI   1
COTTONWOOD PAS LGT SNOW  32  28  86 CALM      30.14F
GUNNISON       CLOUDY    32  28  86 N6        30.12F WCI  26
KREMMLING      CLOUDY    34  23  64 CALM      30.10F
LEADVILLE      LGT SNOW  25  23  92 S3        30.11F FOG
MONARCH PASS   SNOW      23  21  93 MISG      30.25F VSB<1/4
SALIDA         CLOUDY    34  32  93 CALM      30.20F
SUNLIGHT       LGT SNOW  30  28  93 E3          N/A
WILKERSON PASS MIX PCPN  28  19  69 E7        30.19F WCI  21
$$

COZ069>075-302200-
...SAN LUIS VALLEY/SANGRE DE CRISTO MOUNTAINS...

CITY           SKY/WX    TMP DP  RH WIND       PRES   REMARKS
ALAMOSA        LGT SNOW  32  29  88 SE3       30.15F FOG
LA VETA PASS   SNOW      27  23  86 S10G20    30.12S VSB 1/2 WCI  17
SAGUACHE       LGT SNOW  32  28  86 SE3       30.16F
$$

COZ035-036-038>040-302200-
...NORTHERN COLORADO FRONT RANGE...

CITY           SKY/WX    TMP DP  RH WIND       PRES   REMARKS
DENVER INTL AP CLOUDY    46  26  45 W3        30.08F
DMNS CITY PARK   N/A     47  24  40 NW3       30.08S
AURORA         CLOUDY    46  25  44 N5        30.09F
FRONT RANGE AP CLOUDY    46  30  53 W3        30.09F
ERIE MUNI ARPT CLOUDY    48  25  40 CALM      30.09S
BOULDER MUN AP CLOUDY    46  28  49 CALM      30.08F
CENTENNIAL     CLOUDY    47  25  42 N8        30.08F
BROOMFIELD     CLOUDY    48  27  43 NW6       30.10F
FORT COLLINS   CLOUDY    46  28  49 CALM      30.10F
LONGMONT       CLOUDY    51  27  39 CALM      30.10F
$$

COZ041-046-047-076>085-087-088-302200-
...PIKES PEAK/PALMER DIVIDE AND SOUTHERN FOOTHILLS...

CITY           SKY/WX    TMP DP  RH WIND       PRES   REMARKS
COLO. SPRINGS  CLOUDY    40  24  53 CALM      30.10F
A. F. ACADEMY  CLOUDY    40  24  52 CALM      30.08F
ELLICOTT       CLOUDY   N/A N/A N/A S6        30.09F
FALCON         CLOUDY    38  23  53 CALM      30.10F
FORT CARSON    CLOUDY    40  26  55 CALM      30.09F
LIMON          NOT AVBL
MONUMENT HILL  CLOUDY    41  23  48 N9        30.08F
TRINIDAD       LGT RAIN  34  31  88 W17       30.12F WCI  23
$$

COZ042>045-048>051-090-091-302200-
...NORTHEAST COLORADO...

CITY           SKY/WX    TMP DP  RH WIND       PRES   REMARKS
GREELEY ARPT   CLOUDY    45  27  49 CALM      30.07F
AKRON          CLOUDY    45  29  53 W5        30.09F
BURLINGTON     CLOUDY    44  28  53 S31G39    30.15F
WRAY           CLOUDY    51  33  50 S17G28    30.12F
STERLING       CLOUDY    45  30  57 CALM      30.08F
HOLYOKE        NOT AVBL
FORT MORGAN    CLOUDY    43  27  53 NW3       30.09F
$$

COZ086-089-092>099-302200-
...SOUTHEAST COLORADO...

CITY           SKY/WX    TMP DP  RH WIND       PRES   REMARKS
PUEBLO         CLOUDY    43  27  53 CALM      30.09F
LA JUNTA       LGT RAIN  41  36  82 S14       30.12F
LAMAR          LGT RAIN  36  34  92 S14       30.17F
SPRINGFIELD      N/A     33  33 100 S15       30.19F WCI  23
$$



USA.gov is the U.S. government's official web portal to all federal, state and local government web resources and services.